Hourly Data Report for January 18, 2004

All times are specified in Local Standard Time (LST). Add 1 hour to adjust for Daylight Saving Time where and when it is observed.

SHERBROOKE A
QUEBEC

45°26'00.000" N
71°41'00.000" W
241.40 m
7028124
71610
YSC

Download Data

Hourly Data (January 2004)
Hourly Data Report for January 18, 2004
TIME Temp Definition
°C
Dew Point Temp Definition
°C
Rel Hum Definition
%
Wind Dir Definition
10's deg

Wind Spd Definition
km/h
Visibility Definition
km
Stn Press Definition
kPa
Hmdx Definition


Wind Chill Definition


Weather Definition


00:00 -17.5 -22.2 67 9 7 15.0 98.05   -23  
01:00 -16.7 -21.3 67 9 6 15.0 97.98   -21  
02:00 -16.3 -21.0 67 7 7 15.0 97.87   -21  
03:00 -16.0 -20.6 68 6 4 15.0 97.79   -19 Snow
04:00 -15.3 -19.4 71 5 11 3.4 97.68   -22 Snow
05:00 -14.5 -18.6 71 8 11 6.4 97.50   -21 Snow
06:00 -13.9 -17.8 72 8 13 15.0 97.32   -21  
07:00 -12.8 -16.7 73 6 11 15.0 97.20   -19 Snow
08:00 -11.8 -15.1 76 6 11 9.7 97.06   -18 Snow
09:00 -10.7 -13.6 79 6 4 4.8 97.02   -13 Snow
10:00 -8.5 -11.1 81 10 15 1.6 96.98   -15 Snow
11:00 -7.2 -9.8 82 12 4 1.6 96.86   -9 Snow
12:00 -5.5 -8.2 81 9 4 1.6 96.76   -7 Snow
13:00 -5.0 -7.6 82 6 6 6.4 96.65   -8 Snow
14:00 -3.9 -6.7 81 14 7 1.6 96.55   -7 Snow
15:00 -3.5 -6.1 82 17 4 1.6 96.53   -5 Snow
16:00 -3.9 -6.1 85 23 4 3.2 96.52   -6 Snow
17:00 -4.5 -6.9 83 24 6 24.1 96.51   -7 Mostly Cloudy
18:00 -5.0 -7.6 82 27 6 15.0 96.50   -8  
19:00 -6.1 -9.4 77 27 24 15.0 96.53   -14  
20:00 -7.7 -11.1 77 26 11 15.0 96.53   -13  
21:00 -8.6 -12.0 76   0 15.0 96.51      
22:00 -9.1 -12.3 78 24 6 15.0 96.46   -12  
23:00 -9.3 -12.0 81 21 7 12.9 96.41   -13 Snow

Notes on Data Quality.

Legend

  • E = Estimated
  • M = Missing
  • NA = Not Available
Date modified: